Tracking 22124 objects as of 25-Jan-2021
HD Live streaming from Space Station
objects crossing your sky now

STARLINK-1866

Track STARLINK-1866 now!
10-day predictions
STARLINK-1866 is classified as:


NORAD ID: 47152
Int'l Code: 2020-088AG
Perigee: 487.0 km
Apogee: 489.0 km
Inclination: 53.1 °
Period: 94.2 minutes
Semi major axis: 6859 km
RCS: Unknown
Launch date: November 25, 2020
Source: United States (US)
Launch site: AIR FORCE EASTERN TEST RANGE (AFETR)
aabbcc
Your satellite tracking list
Your tracking list is empty




NASA's NSSDC Master Catalog

Two Line Element Set (TLE):
1 47152U 20088AG  21025.25001157 -.01023908  00000-0 -39832-1 0  9999
2 47152  53.0518  54.6534 0001447  76.0823  80.7683 15.28304270 10300
Source of the keplerian elements: AFSPC